This is the latest recevied weather packets stored in our database for station/object OK1TBF-15. If no packets are shown the sender has not sent any weather packets the latest 10 day(s).
| Time | Temp. | Humidity | Pressure | Rain* | Wind** | Luminosity | Snow |
|---|---|---|---|---|---|---|---|
| 1778000777 | 20° C | 29% | 1005.5 hPa | - | - | - | - |
| 1778000177 | 20.56° C | 29% | 1005.6 hPa | - | - | - | - |
| 1777999577 | 21.11° C | 27% | 1005.6 hPa | - | - | - | - |
| 1777998981 | 21.67° C | 26% | 1005.6 hPa | - | - | - | - |
| 1777998376 | 21.67° C | 26% | 1005.7 hPa | - | - | - | - |
| 1777997776 | 22.22° C | 23% | 1005.8 hPa | - | - | - | - |
| 1777997176 | 22.78° C | 29% | 1005.8 hPa | - | - | - | - |
| 1777996576 | 22.78° C | 26% | 1005.7 hPa | - | - | - | - |
| 1777995976 | 22.78° C | 27% | 1005.6 hPa | - | - | - | - |
| 1777995376 | 22.78° C | 30% | 1005.8 hPa | - | - | - | - |
| 1777994776 | 22.78° C | 30% | 1005.8 hPa | - | - | - | - |
| 1777994176 | 22.78° C | 31% | 1005.9 hPa | - | - | - | - |
| 1777993576 | 22.78° C | 33% | 1005.9 hPa | - | - | - | - |
| 1777992975 | 22.78° C | 30% | 1006.1 hPa | - | - | - | - |
| 1777992376 | 23.33° C | 31% | 1006.1 hPa | - | - | - | - |
| 1777991776 | 23.33° C | 31% | 1006.3 hPa | - | - | - | - |
| 1777991176 | 23.89° C | 32% | 1006.3 hPa | - | - | - | - |
| 1777990576 | 23.89° C | 33% | 1006.4 hPa | - | - | - | - |
| 1777989976 | 23.89° C | 34% | 1006.5 hPa | - | - | - | - |
| 1777989376 | 23.33° C | 32% | 1006.6 hPa | - | - | - | - |
| 1777988776 | 23.89° C | 33% | 1006.7 hPa | - | - | - | - |
| 1777988176 | 23.89° C | 32% | 1006.8 hPa | - | - | - | - |
| 1777987576 | 23.89° C | 34% | 1006.9 hPa | - | - | - | - |
| 1777986976 | 23.89° C | 35% | 1006.9 hPa | - | - | - | - |
| 1777986375 | 23.33° C | 36% | 1007.1 hPa | - | - | - | - |
* Rain since midnight (hover to see other rain measurements)
** Current wind speed in m/s (hover to see current wind gust speed)